Regional Weather Roundup
Issued by NWS

Home | Current Version | Previous Version | Text Only | Print | Product List | Glossary Off
Versions: 1 2 3 4 5 6 7 8 9 10 11 12 13 14 15 16 17 18 19 20 21 22 23 24 25 26 27 28 29 30 31 32 33 34 35 36 37 38 39 40 41 42 43 44 45 46 47 48 49 50

000
ASUS43 KLSX 290307
RWRMO

WEATHER SUMMARY FOR MISSOURI
NATIONAL WEATHER SERVICE SPRINGFIELD MO
900 PM CST SUN DEC 28 2014

NOTE: "FAIR" INDICATES FEW OR NO CLOUDS BELOW 12,000 FEET WITH NO
       SIGNIFICANT WEATHER AND/OR OBSTRUCTIONS TO VISIBILITY.
       CURRENT SKY AND/OR WEATHER CONDITIONS ARE NOT AVAILABLE FOR
       CHILLICOTHE AND FARMINGTON.

MOZ001>031-035>038-043-044-053-054-290400-
...NORTHERN AND WESTERN MISSOURI...

CITY           SKY/WX    TMP DP  RH WIND       PRES   REMARKS
KANSAS CTY INT MOCLDY    29  18  63 S6        30.17S WCI  23
KANSAS C DTWN  PTCLDY    33  20  58 SW3       30.18S
LEE`S SUMMIT   PTCLDY    31  20  63 SE5       30.18S WCI  26
ST JOSEPH      MOCLDY    31  22  69 CALM      30.18S
CHILLICOTHE      N/A     31  22  69 CALM      30.20S
KIRKSVILLE     MOCLDY    28  21  75 CALM      30.20R

$$
MOZ066>068-077>081-088>096-101>105-290400-
...SOUTHWEST MISSOURI...

CITY           SKY/WX    TMP DP  RH WIND       PRES   REMARKS
SPRINGFIELD    CLEAR     24  21  88 E5        30.15F WCI  18
JOPLIN         CLEAR     27  23  85 E6        30.17S WCI  20

$$
MOZ032>034-039>042-045>050-055>058-069>072-290400-
...CENTRAL MISSOURI...

CITY           SKY/WX    TMP DP  RH WIND       PRES   REMARKS
COLUMBIA       PTCLDY    29  21  72 CALM      30.20S
JEFFERSON CITY PTCLDY    26  23  88 CALM      30.23R
ROLLA          CLEAR     25  21  85 E3        30.18R
SEDALIA        MOCLDY    30  19  63 CALM      30.20R
WHITEMAN AFB   MOCLDY    31  20  63 S6        30.16S WCI  25
WARRENSBURG    MOCLDY    28  21  74 CALM      30.20S
OSAGE BEACH    CLEAR     27  21  80 CALM      30.20R

$$
MOZ051-052-059>065-290400-
...EAST CENTRAL MISSOURI...

CITY           SKY/WX    TMP DP  RH WIND       PRES   REMARKS
ST LOUIS INTL  CLEAR     30  22  72 CALM      30.24R
SPIRIT OF STL  CLEAR     25  22  88 CALM      30.23R
ST CHARLES     CLEAR     29  27  92 E5        30.24R WCI  24

$$
MOZ072>076-082>087-097>100-106>115-290400-
...SOUTH CENTRAL AND SOUTHEAST MISSOURI...

CITY           SKY/WX    TMP DP  RH WIND       PRES   REMARKS
CAPE GIRARDEAU CLOUDY    34  28  79 NE7       30.23R WCI  28
FARMINGTON     CLEAR     25  23  93 CALM      30.22R
POPLAR BLUFF   CLOUDY    34  26  72 N7        30.22S WCI  28
WEST PLAINS    CLEAR     24  21  88 CALM      30.18S

$$



USA.gov is the U.S. government's official web portal to all federal, state and local government web resources and services.